When you browse on this site, cookies collect data to enhance your experience and personalize the content and advertising you see.
Visit our Privacy Policy to learn more. By continuing to use the site, you agree to this use of cookies and data.
  • Em Portugal
  • Lista de países
  • Para 7 dias
  • Temperatura da água
  • Mapas de satélite
  • Mapa do tempo
  • Widgets de tempo
  • user-avatar
    Iniciar Sessão

    Previsão horária em Babarygino

    Hoje, 18 Fevereiro, Segunda-feira

    Tempo Temperatura Precipitação Vento Pressão Humidade
    00:00 -4°C° 0 mm 3 m/s 755 mmHg 83%
    01:00 -5°C° 0 mm 3 m/s 755 mmHg 84%
    02:00 -5°C° 0 mm 2 m/s 756 mmHg 90%
    03:00 -5°C° 0 mm 2 m/s 756 mmHg 91%
    04:00 -5°C° 0 mm 2 m/s 757 mmHg 92%
    05:00 -6°C° 0 mm 2 m/s 757 mmHg 92%
    06:00 -6°C° 0 mm 2 m/s 758 mmHg 92%
    07:00 -4°C° 0 mm 1 m/s 758 mmHg 92%
    08:00 -6°C° 0 mm 2 m/s 758 mmHg 91%
    09:00 -5°C° 0 mm 2 m/s 759 mmHg 85%
    10:00 -2°C° 0 mm 1 m/s 759 mmHg 79%
    11:00 -1°C° 0 mm 1 m/s 759 mmHg 74%
    12:00 0°C° 0 mm 1 m/s 759 mmHg 70%
    13:00 0°C° 0 mm 1 m/s 759 mmHg 66%
    14:00 +1°C° 0 mm 1 m/s 759 mmHg 63%
    15:00 0°C° 0 mm 1 m/s 759 mmHg 67%
    16:00 -1°C° 0 mm 1 m/s 759 mmHg 71%
    17:00 -2°C° 0 mm 1 m/s 758 mmHg 76%
    18:00 -4°C° 0 mm 2 m/s 758 mmHg 76%
    19:00 -4°C° 0 mm 2 m/s 758 mmHg 77%
    20:00 -4°C° 0 mm 2 m/s 757 mmHg 78%
    21:00 -5°C° 0 mm 3 m/s 757 mmHg 75%
    22:00 -5°C° 0 mm 3 m/s 757 mmHg 73%
    23:00 -5°C° 0 mm 4 m/s 756 mmHg 71%

    Amanhã, 19 Fevereiro, Terça-feira

    Tempo Temperatura Precipitação Vento Pressão Humidade
    00:00 -4°C° 0 mm 4 m/s 756 mmHg 69%
    01:00 -4°C° 0 mm 4 m/s 755 mmHg 68%
    02:00 -4°C° 0 mm 4 m/s 755 mmHg 66%
    03:00 -4°C° 0 mm 4 m/s 754 mmHg 70%
    04:00 -4°C° 0 mm 5 m/s 753 mmHg 74%
    05:00 -4°C° 0 mm 5 m/s 753 mmHg 78%
    06:00 -4°C° 0 mm 5 m/s 752 mmHg 80%
    07:00 -4°C° 0 mm 5 m/s 752 mmHg 83%
    08:00 -2°C° 0 mm 4 m/s 751 mmHg 85%
    09:00 -2°C° 0 mm 4 m/s 751 mmHg 84%
    10:00 -1°C° 0 mm 4 m/s 750 mmHg 83%
    11:00 0°C° 0 mm 5 m/s 750 mmHg 82%
    12:00 0°C° 0 mm 4 m/s 749 mmHg 82%
    13:00 +1°C° 0 mm 4 m/s 748 mmHg 83%
    14:00 +1°C° 0 mm 4 m/s 748 mmHg 83%
    15:00 +1°C° 0 mm 4 m/s 747 mmHg 84%
    16:00 0°C° 0 mm 4 m/s 746 mmHg 85%
    17:00 0°C° 0 mm 4 m/s 746 mmHg 86%
    18:00 0°C° 0 mm 4 m/s 745 mmHg 87%
    19:00 0°C° 0 mm 4 m/s 745 mmHg 88%
    20:00 0°C° 0 mm 4 m/s 744 mmHg 89%
    21:00 0°C° 0 mm 4 m/s 743 mmHg 89%
    22:00 0°C° 0 mm 5 m/s 742 mmHg 88%
    23:00 +1°C° 0 mm 5 m/s 742 mmHg 88%

    Depois de amanhã, 20 Fevereiro, Quarta-feira

    Tempo Temperatura Precipitação Vento Pressão Humidade
    00:00 +1°C° 0.3 mm 5 m/s 741 mmHg 88%
    01:00 +1°C° 0.3 mm 5 m/s 741 mmHg 89%
    02:00 +1°C° 0.3 mm 5 m/s 741 mmHg 89%
    03:00 +1°C° 0 mm 5 m/s 741 mmHg 89%
    04:00 +1°C° 0 mm 4 m/s 741 mmHg 90%
    05:00 +1°C° 0 mm 4 m/s 741 mmHg 90%
    06:00 +1°C° 0.1 mm 4 m/s 741 mmHg 90%
    07:00 0°C° 0.1 mm 4 m/s 741 mmHg 90%
    08:00 0°C° 0.1 mm 4 m/s 741 mmHg 89%
    09:00 +1°C° 0.1 mm 4 m/s 741 mmHg 87%
    10:00 +1°C° 0.1 mm 5 m/s 741 mmHg 85%
    11:00 +1°C° 0.1 mm 5 m/s 741 mmHg 83%
    12:00 +1°C° 0 mm 5 m/s 741 mmHg 83%
    13:00 +1°C° 0 mm 5 m/s 741 mmHg 82%
    14:00 +1°C° 0 mm 5 m/s 741 mmHg 82%
    15:00 +1°C° 0.1 mm 5 m/s 741 mmHg 82%
    16:00 +1°C° 0.1 mm 5 m/s 740 mmHg 83%
    17:00 0°C° 0.1 mm 5 m/s 740 mmHg 84%
    18:00 0°C° 0.2 mm 5 m/s 741 mmHg 81%
    19:00 0°C° 0.2 mm 5 m/s 741 mmHg 78%
    20:00 -2°C° 0.2 mm 6 m/s 741 mmHg 75%
    21:00 -2°C° 0.1 mm 6 m/s 742 mmHg 77%
    22:00 -3°C° 0.1 mm 6 m/s 742 mmHg 79%
    23:00 -4°C° 0.1 mm 6 m/s 743 mmHg 80%

    21 Fevereiro, Quinta-feira

    Tempo Temperatura Precipitação Vento Pressão Humidade
    00:00 -4°C° 0 mm 6 m/s 743 mmHg 79%
    01:00 -4°C° 0 mm 6 m/s 744 mmHg 77%
    02:00 -5°C° 0 mm 6 m/s 745 mmHg 76%
    03:00 -5°C° 0.1 mm 6 m/s 745 mmHg 75%
    04:00 -5°C° 0.1 mm 6 m/s 746 mmHg 73%
    05:00 -5°C° 0.1 mm 6 m/s 746 mmHg 72%
    06:00 -6°C° 0.1 mm 6 m/s 747 mmHg 70%
    07:00 -8°C° 0.1 mm 6 m/s 748 mmHg 69%
    08:00 -8°C° 0.1 mm 6 m/s 749 mmHg 67%
    09:00 -8°C° 0 mm 6 m/s 749 mmHg 65%
    10:00 -7°C° 0 mm 5 m/s 750 mmHg 64%
    11:00 -7°C° 0 mm 5 m/s 751 mmHg 62%
    12:00 -7°C° 0 mm 5 m/s 752 mmHg 61%
    13:00 -7°C° 0 mm 5 m/s 752 mmHg 60%
    14:00 -7°C° 0 mm 5 m/s 753 mmHg 59%
    15:00 -7°C° 0 mm 5 m/s 754 mmHg 60%
    16:00 -8°C° 0 mm 5 m/s 754 mmHg 62%
    17:00 -8°C° 0 mm 4 m/s 755 mmHg 63%
    18:00 -8°C° 0 mm 5 m/s 756 mmHg 63%
    19:00 -10°C° 0 mm 5 m/s 757 mmHg 64%
    20:00 -10°C° 0 mm 5 m/s 758 mmHg 64%
    21:00 -10°C° 0 mm 4 m/s 758 mmHg 65%
    22:00 -10°C° 0 mm 4 m/s 759 mmHg 66%
    23:00 -10°C° 0 mm 4 m/s 760 mmHg 67%

    22 Fevereiro, Sexta-feira

    Tempo Temperatura Precipitação Vento Pressão Humidade
    00:00 -10°C° 0 mm 3 m/s 761 mmHg 69%
    01:00 -10°C° 0 mm 3 m/s 761 mmHg 71%
    02:00 -10°C° 0 mm 3 m/s 762 mmHg 73%
    03:00 -10°C° 0 mm 3 m/s 763 mmHg 74%
    04:00 -10°C° 0 mm 3 m/s 763 mmHg 74%
    05:00 -10°C° 0 mm 3 m/s 764 mmHg 74%
    06:00 -10°C° 0 mm 3 m/s 765 mmHg 72%
    07:00 -10°C° 0 mm 3 m/s 765 mmHg 71%
    08:00 -10°C° 0 mm 3 m/s 766 mmHg 70%
    09:00 -9°C° 0 mm 3 m/s 767 mmHg 65%
    10:00 -8°C° 0 mm 3 m/s 767 mmHg 60%
    11:00 -7°C° 0 mm 3 m/s 767 mmHg 56%
    12:00 -7°C° 0 mm 4 m/s 768 mmHg 52%
    13:00 -5°C° 0 mm 4 m/s 768 mmHg 48%
    14:00 -4°C° 0 mm 4 m/s 768 mmHg 44%
    15:00 -5°C° 0 mm 4 m/s 768 mmHg 49%
    16:00 -7°C° 0 mm 4 m/s 768 mmHg 53%
    17:00 -6°C° 0 mm 3 m/s 769 mmHg 58%
    18:00 -7°C° 0 mm 3 m/s 769 mmHg 61%
    19:00 -7°C° 0 mm 3 m/s 769 mmHg 65%
    20:00 -8°C° 0 mm 3 m/s 769 mmHg 69%
    21:00 -7°C° 0 mm 2 m/s 769 mmHg 72%
    22:00 -8°C° 0 mm 2 m/s 769 mmHg 76%
    23:00 -7°C° 0 mm 1 m/s 769 mmHg 79%

    23 Fevereiro, Sábado

    Tempo Temperatura Precipitação Vento Pressão Humidade
    00:00 -7°C° 0 mm 1 m/s 769 mmHg 79%
    01:00 -7°C° 0 mm 1 m/s 768 mmHg 79%
    02:00 -7°C° 0 mm 1 m/s 768 mmHg 79%
    03:00 -8°C° 0 mm 2 m/s 767 mmHg 76%
    04:00 -7°C° 0 mm 2 m/s 766 mmHg 72%
    05:00 -7°C° 0 mm 2 m/s 765 mmHg 69%
    06:00 -8°C° 0.4 mm 3 m/s 764 mmHg 76%
    07:00 -8°C° 0.4 mm 3 m/s 764 mmHg 84%
    08:00 -8°C° 0.4 mm 3 m/s 763 mmHg 91%
    09:00 -7°C° 0.4 mm 3 m/s 762 mmHg 89%
    10:00 -7°C° 0.4 mm 3 m/s 761 mmHg 87%
    11:00 -7°C° 0.4 mm 4 m/s 760 mmHg 85%
    12:00 -6°C° 0.4 mm 3 m/s 759 mmHg 87%
    13:00 -6°C° 0.4 mm 3 m/s 758 mmHg 89%
    14:00 -5°C° 0.4 mm 3 m/s 758 mmHg 90%
    15:00 -4°C° 0.3 mm 2 m/s 757 mmHg 91%
    16:00 -4°C° 0.3 mm 2 m/s 757 mmHg 92%
    17:00 -4°C° 0.3 mm 2 m/s 757 mmHg 93%
    18:00 -4°C° 0.1 mm 2 m/s 757 mmHg 93%
    19:00 -3°C° 0.1 mm 2 m/s 757 mmHg 94%
    20:00 -1°C° 0.1 mm 1 m/s 758 mmHg 95%
    21:00 -1°C° 0 mm 1 m/s 758 mmHg 95%
    22:00 0°C° 0 mm 1 m/s 758 mmHg 96%
    23:00 0°C° 0 mm 1 m/s 758 mmHg 97%
    Mostrar mais